Simultaneous Nadir Overpasses (SNOs) Predictions

Prediction of SNOs near equator between AQUA and NPP Satellite Orbit:

Table of predicted SNOs near equator for the next 14.0 days since TLE Epoch: 1/12/2014
Index Date (AQUA) Time (AQUA) AQUA Lat,Lon Date (NPP) Time (NPP) NPP Lat,Lon Distance(km) Time Diff (sec)
1 01/13/2014 14:52:59 26.64, -23.43 01/13/2014 14:43:34 26.64, -23.43 0.37 565
2 01/13/2014 15:35:03 -0.20, 150.16 01/13/2014 15:26:44 -0.19, 150.17 1.16 499
3 01/13/2014 16:23:16 -4.51, -41.22 01/13/2014 16:16:13 -4.54, -41.47 28.58 423
4 01/13/2014 17:11:24 8.99, 127.40 01/13/2014 17:05:36 9.09, 126.89 57.43 348
5 01/13/2014 17:59:38 -13.62, -63.96 01/13/2014 17:55:06 -13.75, -64.74 85.12 272
6 01/16/2014 06:20:47 -29.95, -75.99 01/16/2014 06:10:47 -30.38, -75.96 48.35 600
7 01/16/2014 07:06:36 16.62, 94.85 01/16/2014 06:57:41 16.61, 94.85 0.33 535
8 01/16/2014 07:50:52 1.87, -93.49 01/16/2014 07:43:06 1.92, -93.58 11.34 466
9 01/16/2014 08:39:07 -6.46, 75.11 01/16/2014 08:32:37 -6.53, 74.75 40.38 390
10 01/16/2014 09:27:14 10.99,-116.25 01/16/2014 09:21:59 11.15,-116.86 68.90 315
11 01/16/2014 10:15:29 -15.57, 52.38 01/16/2014 10:11:30 -15.75, 51.50 95.84 239
12 01/18/2014 22:37:10 -29.98, 39.91 01/18/2014 22:27:38 -29.98, 39.92 0.90 572
13 01/18/2014 23:19:45 4.93,-146.69 01/18/2014 23:11:20 4.93,-146.68 0.83 505
14 01/19/2014 00:06:40 3.95, 22.86 01/18/2014 23:59:29 3.97, 22.65 23.51 431
15 01/19/2014 00:54:55 -8.53,-168.53 01/19/2014 00:48:59 -8.64,-169.00 52.39 356
16 01/19/2014 01:43:02 13.07, 0.11 01/19/2014 01:38:22 13.19, -0.62 80.37 280
17 01/21/2014 14:04:08 29.99, -11.83 01/21/2014 13:54:08 30.81, -11.87 91.25 600
18 01/21/2014 14:51:00 -20.94, 158.06 01/21/2014 14:42:00 -20.94, 158.05 0.53 540
19 01/21/2014 15:34:19 -1.50, -29.40 01/21/2014 15:26:27 -1.52, -29.46 6.42 472
20 01/21/2014 16:22:26 6.04, 139.22 01/21/2014 16:15:49 6.13, 138.91 35.90 397
21 01/21/2014 17:10:40 -10.67, -52.15 01/21/2014 17:05:19 -10.80, -52.73 64.40 321
22 01/21/2014 17:58:48 15.15, 116.49 01/21/2014 17:54:42 15.35, 115.66 91.66 246
23 01/24/2014 06:20:28 29.96, 104.10 01/24/2014 06:10:51 29.96, 104.15 4.65 577
24 01/24/2014 07:03:49 -8.18, -83.17 01/24/2014 06:55:20 -8.17, -83.16 1.14 509
25 01/24/2014 07:50:03 -3.71, 86.99 01/24/2014 07:42:47 -3.73, 86.81 19.42 436
26 01/24/2014 08:38:11 8.19,-104.39 01/24/2014 08:32:10 8.28,-104.82 48.45 361
27 01/24/2014 09:26:25 -12.82, 64.24 01/24/2014 09:21:40 -12.95, 63.54 76.50 285




NCC Satellite Simultaneous Nadir Overpasses (SNOs) Prediction Service
